Regional Weather Roundup
Issued by NWS

Home | Current Version | Previous Version | Graphics & Text | Print | Product List | Glossary On
Versions: 1 2 3 4 5 6 7 8 9 10 11 12 13 14 15 16 17 18 19 20 21 22 23 24 25 26 27 28 29 30 31 32 33 34 35 36 37 38 39 40 41 42 43 44 45 46 47 48 49 50
000
ASUS45 KABQ 010410
RWRNM
NEW MEXICO REGIONAL WEATHER ROUNDUP
NATIONAL WEATHER SERVICE ALBUQUERQUE NM
1000 PM MDT SAT APR 30 2016

NOTE: "FAIR" MEANS FEW OR NO CLOUDS BELOW 12,000 FEET AGL WITH NO
       SIGNIFICANT WEATHER OR OBSTRUCTIONS TO VISION.

      THIS PRODUCT IS RELEASED AS TWO VERSIONS.  ONE VERSION NEAR
      THE TOP OF THE HOUR CONTAINING PRELIMINARY DATA FROM ALBUQUERQUE
      AND OTHER STATIONS.  A FINAL VERSION WITH ADDITIONAL DATA IS
      ISSUED ABOUT 10 MINUTES AFTER THE HOUR.

NMZ501-503-504-510>518-010500-
NORTHWEST PLATEAU/NORTHCENTRAL MOUNTAINS

CITY           SKY/WX    TMP DP  RH WIND       PRES   REMARKS
FARMINGTON     FAIR      46  33  60 W5        29.87R
LOS ALAMOS     LGT RAIN  41  41 100 S12       29.99R
SANTA FE       LGT RAIN  43  39  86 SE17      29.96R
TAOS           MOCLDY    41  27  56 SE16G24   29.96R
ANGEL FIRE     CLOUDY    32  26  80 NW9       30.06R WCI  24

$$
NMZ402-403-502-505>509-010500-
WESTCENTRAL MOUNTAINS/SOUTHWEST MOUNTAINS

CITY           SKY/WX    TMP DP  RH WIND       PRES   REMARKS
GALLUP         LGT RAIN  37  35  92 E14       29.93S WCI  28
GRANTS         LGT RAIN  39  37  93 NW10G20   29.96S WCI  32
SILVER CITY      N/A     55  27  33 NW8       29.84R

$$
NMZ407-409-411-412-010500-
SOUTHERN DESERTS

CITY           SKY/WX    TMP DP  RH WIND       PRES   REMARKS
LORDSBURG      MOCLDY    64  27  24 W5        29.76R
DEMING         FAIR      68  17  14 SW13G22   29.76R
LAS CRUCES     FAIR      64  15  15 S5        29.80R
HOLLOMAN AFB   MOCLDY    65  19  17 E5        29.77R
ALAMOGORDO     FAIR      63  19  19 SE5       29.79R
T OR C         CLOUDY    68  20  16 S7        29.78R

$$
NMZ519>523-010500-
CENTRAL VALLEYS/CENTRAL HIGHLANDS

CITY           SKY/WX    TMP DP  RH WIND       PRES   REMARKS
ALBUQUERQUE    CLOUDY    51  43  74 N7        29.90R
DOUBLE EAGLE   CLOUDY    45  41  87 N10       29.92
MORIARTY ARPT  CLOUDY    45  40  84 NE8       29.98R
CLINES CORNERS CLOUDY    39  35  86 E24G36    29.99R WCI  28
BELEN          FAIR      50  39  65 N8        29.88R
SOCORRO        MOCLDY    55  38  52 N14G22    29.85R

$$
NMZ524>526-539-540-010500-
SOUTHCENTRAL MOUNTAINS

CITY           SKY/WX    TMP DP  RH WIND       PRES   REMARKS
RUIDOSO          N/A     50  25  37 SE9       29.96R

$$
NMZ527>531-010500-
NORTHEAST HIGHLANDS/NORTHEAST PLAINS

CITY           SKY/WX    TMP DP  RH WIND       PRES   REMARKS
LAS VEGAS      SNOW      32  32 100 NE8       30.07R VSB 1/2 WCI  25
RATON          CLOUDY    36  25  64 N18       30.07R WCI  26
CLAYTON        CLOUDY    40  28  62 N17G31    30.07R WCI  31

$$
NMZ532>537-010500-
EASTCENTRAL PLAINS

CITY           SKY/WX    TMP DP  RH WIND       PRES   REMARKS
TUCUMCARI      LGT RAIN  44  37  76 NE22G29   30.04R
CANNON AFB     NOT AVBL
CLOVIS AIRPORT CLOUDY    52  39  62 NE28G36   30.00R

$$
NMZ028-029-538-010500-
SOUTHEAST PLAINS

CITY           SKY/WX    TMP DP  RH WIND       PRES   REMARKS
ROSWELL        FAIR      65  37  35 N17       29.81R
ARTESIA        FAIR      68  32  26 NW13      29.80R
CARLSBAD       FAIR      60  20  21 NW3       29.77R
HOBBS          FAIR      66  32  28 E17       29.84R


$$



USA.gov is the U.S. government's official web portal to all federal, state and local government web resources and services.